Regional Weather Roundup
Issued by NWS

Home | Current Version | Previous Version | Graphics & Text | Print | Product List | Glossary On
Versions: 1 2 3 4 5 6 7 8 9 10 11 12 13 14 15 16 17 18 19 20 21 22 23 24 25 26 27 28 29 30 31 32 33 34 35 36 37 38 39 40 41 42 43 44 45 46 47 48 49 50
000
ASUS43 KDTX 031710
RWRMI
MICHIGAN HOURLY REGIONAL WEATHER ROUNDUP
NATIONAL WEATHER SERVICE DETROIT/PONTIAC MI
1200 PM EST TUE MAR 03 2015

NOTE: "FAIR" INDICATES FEW OR NO CLOUDS BELOW 12,000 FEET WITH NO
SIGNIFICANT WEATHER AND/OR OBSTRUCTION TO VISIBILITY.

MIZ047>049-052>055-059>063-066>070-074>076-081>083-031800-
SOUTHEAST LOWER MICHIGAN

CITY           SKY/WX    TMP DP  RH WIND       PRES   REMARKS
ADRIAN         MIX PCPN  26  23  88 S13       29.85F FOG
ALMA           LGT SNOW  23  21  93 SE9G17    29.78F
ANN ARBOR      FRZ RAIN  26  23  88 S13       29.86F FOG
BAD AXE        LGT SNOW  22  20  91 SE12G17   29.86F VSB 1
DETROIT CITY   FRZ RAIN  28  23  81 SE14      29.90F
DETROIT        FRZ RAIN  27  23  85 SE10      29.90F FOG
FLINT          MIX PCPN  25  20  81 SE15      29.81F
GROSSE ILE     MIX PCPN  27  25  93 SE13G18   29.87F
HILLSDALE      MIX PCPN  27  25  94 S14       29.77F
HOWELL         LGT SNOW  25  23  93 SE15      29.79F

CITY           SKY/WX    TMP DP  RH WIND       PRES   REMARKS
JACKSON        FRZ RAIN  26  23  88 SE16G25   29.76F FOG
LAMBERTVILLE   MIX PCPN  30  23  74 SE3       29.89F
LANSING        LGT SNOW  26  22  84 S18G26    29.75F FOG
LAPEER         NOT AVBL
MASON          LGT SNOW  26  22  87 S18G24    29.76F
MONROE         MIX PCPN  27  25  93 SE9       29.88F
MT. CLEMENS    LGTSLEET  23  21  91 SE15      29.89F FOG
PONTIAC        LGTSLEET  23  20  88 SE14      29.82F VSB 3/4
PORT HOPE        N/A     22  18  85 SE10      29.85F
PORT HURON     LGT SNOW  23  19  86 SE12      29.92F VSB 1
TRI CITIES     SNOW      25  20  81 SE14      29.82F VSB 1/4
YPSILANTI      FRZ RAIN  30  23  75 SE18G28   29.88F
$$
MIZ043>046-050>051-056>058-064>065-071>073-077>080-031800-
SOUTHWEST LOWER MICHIGAN

CITY           SKY/WX    TMP DP  RH WIND       PRES   REMARKS
BATTLE CREEK   CLOUDY    28  23  81 S17       29.72F HAZE
BENTON HARBOR  CLOUDY    28  26  92 S12       29.71F FOG
BIG RAPIDS     LGT SNOW  24  22  94 SE14      29.71F VSB 1
COLDWATER      LGT SNOW  28  25  87 SE14G23   29.75F
HOLLAND        CLOUDY    29  24  82 SE15      29.70F
GRAND RAPIDS   LGT SNOW  26  22  84 SE9       29.72F FOG
KALAMAZOO      FRZ RAIN  28  24  85 S9G21     29.72F
MARSHALL       MIX PCPN  26  24  89 SE9       29.74F
MUSKEGON       LGTSLEET  26  22  84 SE13      29.70F FOG
$$
MIZ016>042-031800-
NORTHERN LOWER MICHIGAN

CITY           SKY/WX    TMP DP  RH WIND       PRES   REMARKS
ALPENA         LGT SNOW  23  20  88 S10       29.80F VSB 3/4
BEAVER ISLAND  LGT SNOW  23  21  89 S10G16    29.73F VSB 1
BELLAIRE       LGT SNOW  24  20  85 SE10      29.75F
CADILLAC       LGT SNOW  22  19  89 SE13G18   29.69F VSB 3/4
CHARLEVOIX     LGT SNOW  23  20  89 SE8       29.76F VSB 3/4
FRANKFORT      LGT SNOW  24  22  91 SE13      29.70F VSB 3/4
GAYLORD        SNOW      20  18  92 S9        29.70F VSB 1/2
GRAYLING       LGT SNOW  21  19  91 SE9       29.74F VSB 3/4
HARBOR SPRINGS SNOW      23  21  91 E3        29.75F VSB 1/2
HOUGHTON LAKE  LGT SNOW  21  17  84 SE12      29.74F VSB 1
MANISTEE       CLOUDY    25  19  80 SE9       29.69F
OSCODA         LGT SNOW  24  21  91 S9        29.84F VSB 3/4
PELLSTON       SNOW      22  20  92 SE10      29.77F VSB 1/4
TRAVERSE CITY  LGT SNOW  25  20  81 SE8       29.71F VSB 1
$$
MIZ007>008-015-031800-
EASTERN UPPER MICHIGAN

CITY           SKY/WX    TMP DP  RH WIND       PRES   REMARKS
KINROSS        CLOUDY    25  21  86 S12G17    29.75F
MACKINAC ISLAN LGT SNOW  22  19  85 S8G20     29.76F VSB 1
NEWBERRY       LGT SNOW  21  19  91 S14G20    29.73F VSB 1
S. S. MARIE    SNOW      19  14  81 SE7       29.76F VSB 1/2
$$
MIZ004>006-011>014-085-031800-
CENTRAL UPPER MICHIGAN

CITY           SKY/WX    TMP DP  RH WIND       PRES   REMARKS
MANISTIQUE     LGT SNOW  24  23  96 S12       29.70F VSB 1
ESCANABA       CLOUDY    27  25  93 S9        29.68F VSB 1/2
MENOMINEE      CLOUDY    27  25  93 S10       29.65F
SAWYER-GWINN   SNOW      23  21  93 S7        29.63F VSB 1/2
$$
MIZ001>003-009>011-084-031800-
WESTERN UPPER MICHIGAN

CITY           SKY/WX    TMP DP  RH WIND       PRES   REMARKS
IRON MOUNTAIN  SNOW      23  20  88 CALM      29.61F VSB 1/2
HOUGHTON       SNOW      21  16  81 S12       29.60F VSB 1/2
COPPER HARBOR    N/A     24  19  81 SW7       29.62F
IRONWOOD       CLOUDY    19  18  93 S8        29.57F VSB 1
$$

ABBREVIATIONS USED IN REMARKS
   TC - TEMPERATURE IN CELSIUS
  WCI - WIND CHILL INDEX
   HX - HEAT INDEX
  VSB - VISIBILITY




USA.gov is the U.S. government's official web portal to all federal, state and local government web resources and services.